AAR302 EIDW-CYYT

Flight info

Callsign AAR302
Flight time N/A
Altitude 40000
Route PELIG2J PELIG DCT SHA DCT ELSOX/M085F400 DCT DINIM DCT 52N020W 52N030W 51N040W 49N050W DCT JOOPY/N0480F400 DCT MIVAD AVALN5
Aircraft A359/H-SDE2E3GHIJ3J4J5LM1OR/LB1D1

Departure

Time N/A
Airport Dublin Airport (EIDW)

Arrival

Time 2026-04-17 12:03
Airport St. John's International Airport (CYYT)
Time Latitude Longitude Altitude Speed Heading
2026-04-17 10:32 50.64844 -42.19044 39999 ft 498 kts 255°
2026-04-17 10:33 50.63940 -42.24317 39999 ft 498 kts 255°
2026-04-17 10:33 50.62125 -42.34861 40000 ft 498 kts 255°
2026-04-17 10:34 50.60301 -42.45388 40006 ft 498 kts 255°
2026-04-17 10:34 50.58468 -42.55910 40010 ft 498 kts 255°
2026-04-17 10:35 50.56627 -42.66413 40011 ft 498 kts 255°
2026-04-17 10:35 50.54775 -42.76915 40012 ft 498 kts 254°
2026-04-17 10:36 50.52914 -42.87407 40013 ft 498 kts 254°
2026-04-17 10:36 50.51056 -42.97824 40013 ft 498 kts 254°
2026-04-17 10:37 50.49177 -43.08297 40014 ft 498 kts 254°
2026-04-17 10:37 50.47286 -43.18772 40014 ft 498 kts 254°
2026-04-17 10:38 50.45386 -43.29238 40015 ft 498 kts 254°
2026-04-17 10:38 50.43477 -43.39694 40015 ft 498 kts 254°
2026-04-17 10:39 50.41560 -43.50140 40016 ft 498 kts 254°
2026-04-17 10:39 50.39633 -43.60573 40016 ft 498 kts 254°
2026-04-17 10:40 50.37696 -43.71004 40016 ft 498 kts 253°
2026-04-17 10:40 50.35764 -43.81351 40017 ft 498 kts 253°
2026-04-17 10:41 50.33808 -43.91771 40016 ft 498 kts 253°
2026-04-17 10:41 50.31831 -44.02238 40017 ft 498 kts 253°
2026-04-17 10:42 50.29871 -44.12562 40019 ft 498 kts 253°
2026-04-17 10:42 50.27886 -44.22955 40021 ft 498 kts 253°
2026-04-17 10:43 50.25897 -44.33320 39992 ft 493 kts 253°
2026-04-17 10:43 50.24919 -44.38389 39809 ft 482 kts 253°
2026-04-17 10:43 50.23959 -44.43356 39603 ft 473 kts 253°
2026-04-17 10:43 50.23015 -44.48227 39404 ft 464 kts 253°
2026-04-17 10:44 50.22087 -44.53003 39212 ft 455 kts 253°
2026-04-17 10:44 50.21177 -44.57677 39000 ft 445 kts 253°
2026-04-17 10:44 50.20283 -44.62253 38821 ft 436 kts 253°
2026-04-17 10:44 50.19405 -44.66742 38562 ft 429 kts 253°
2026-04-17 10:45 50.18535 -44.71174 38160 ft 426 kts 253°
2026-04-17 10:45 50.17669 -44.75582 37650 ft 425 kts 253°
2026-04-17 10:45 50.16802 -44.79984 37123 ft 424 kts 253°
2026-04-17 10:45 50.15933 -44.84381 36596 ft 424 kts 253°
2026-04-17 10:46 50.15064 -44.88771 36157 ft 423 kts 253°
2026-04-17 10:46 50.14195 -44.93152 36013 ft 423 kts 253°
2026-04-17 10:46 50.13325 -44.97527 36001 ft 424 kts 253°
2026-04-17 10:47 50.11574 -45.06306 35999 ft 424 kts 253°
2026-04-17 10:47 50.09817 -45.15075 35999 ft 424 kts 252°
2026-04-17 10:48 50.08054 -45.23832 36002 ft 424 kts 252°
2026-04-17 10:48 50.06295 -45.32534 35999 ft 424 kts 252°
2026-04-17 10:49 50.04518 -45.41282 35998 ft 424 kts 252°
2026-04-17 10:49 50.02733 -45.50032 35999 ft 424 kts 252°
2026-04-17 10:50 50.00944 -45.58763 36003 ft 424 kts 252°
2026-04-17 10:50 49.99149 -45.67489 36000 ft 424 kts 252°
2026-04-17 10:51 49.97344 -45.76218 36001 ft 424 kts 252°
2026-04-17 10:51 49.95536 -45.84927 35997 ft 424 kts 252°
2026-04-17 10:52 49.93722 -45.93628 36003 ft 424 kts 252°
2026-04-17 10:52 49.91898 -46.02339 36001 ft 424 kts 252°
2026-04-17 10:53 49.90068 -46.11040 36001 ft 424 kts 252°
2026-04-17 10:53 49.88234 -46.19721 36001 ft 424 kts 252°
2026-04-17 10:54 49.86391 -46.28409 35999 ft 424 kts 252°
2026-04-17 10:54 49.84542 -46.37088 36001 ft 424 kts 252°
2026-04-17 10:55 49.82686 -46.45762 36000 ft 424 kts 252°
2026-04-17 10:55 49.80824 -46.54426 36001 ft 424 kts 251°
2026-04-17 10:56 49.78956 -46.63086 36001 ft 424 kts 251°
2026-04-17 10:56 49.77081 -46.71737 35998 ft 424 kts 251°
2026-04-17 10:57 49.75213 -46.80322 35998 ft 424 kts 251°
2026-04-17 10:57 49.73326 -46.88956 36001 ft 424 kts 251°
2026-04-17 10:58 49.71432 -46.97588 35999 ft 424 kts 251°
2026-04-17 10:58 49.69532 -47.06210 35997 ft 424 kts 251°
2026-04-17 10:59 49.67626 -47.14825 36002 ft 424 kts 251°
2026-04-17 10:59 49.65712 -47.23444 36002 ft 424 kts 251°
2026-04-17 11:00 49.63792 -47.32047 36001 ft 424 kts 251°
2026-04-17 11:00 49.61867 -47.40640 36003 ft 424 kts 251°
2026-04-17 11:01 49.59935 -47.49232 36002 ft 424 kts 251°
2026-04-17 11:01 49.57998 -47.57808 35997 ft 424 kts 251°
2026-04-17 11:02 49.56053 -47.66387 36001 ft 424 kts 251°
2026-04-17 11:02 49.54102 -47.74956 35999 ft 424 kts 251°
2026-04-17 11:03 49.52140 -47.83536 36001 ft 424 kts 251°
2026-04-17 11:03 49.50190 -47.92033 36002 ft 424 kts 250°
2026-04-17 11:04 49.48220 -48.00583 36001 ft 424 kts 250°
2026-04-17 11:04 49.46242 -48.09133 36001 ft 424 kts 250°
2026-04-17 11:05 49.44259 -48.17666 36002 ft 424 kts 250°
2026-04-17 11:05 49.42270 -48.26196 36002 ft 424 kts 250°
2026-04-17 11:06 49.40274 -48.34722 35999 ft 424 kts 250°
2026-04-17 11:06 49.38268 -48.43223 36843 ft 421 kts 255°
2026-04-17 11:06 49.37260 -48.47390 36598 ft 412 kts 256°
2026-04-17 11:07 49.36295 -48.51495 35463 ft 407 kts 251°
2026-04-17 11:07 49.35345 -48.55597 34797 ft 411 kts 250°
2026-04-17 11:07 49.34370 -48.59763 34259 ft 419 kts 250°
2026-04-17 11:07 49.33368 -48.63996 34023 ft 425 kts 250°
2026-04-17 11:08 49.32350 -48.68269 33997 ft 428 kts 250°
2026-04-17 11:08 49.30301 -48.76834 34000 ft 428 kts 250°
2026-04-17 11:09 49.28246 -48.85395 34000 ft 428 kts 250°
2026-04-17 11:09 49.26205 -48.93879 34000 ft 428 kts 250°
2026-04-17 11:10 49.23109 -49.06684 33998 ft 428 kts 250°
2026-04-17 11:10 49.21037 -49.15215 33998 ft 428 kts 250°
2026-04-17 11:11 49.18956 -49.23745 34000 ft 428 kts 250°
2026-04-17 11:11 49.16872 -49.32258 33999 ft 428 kts 249°
2026-04-17 11:12 49.14781 -49.40769 34001 ft 428 kts 249°
2026-04-17 11:12 49.13038 -49.47834 34000 ft 428 kts 249°
2026-04-17 11:13 49.10936 -49.56328 34001 ft 428 kts 249°
2026-04-17 11:13 49.08484 -49.66194 34000 ft 428 kts 249°
2026-04-17 11:14 49.06712 -49.73300 34000 ft 428 kts 249°
2026-04-17 11:14 49.04591 -49.81770 34000 ft 428 kts 249°
2026-04-17 11:15 49.02464 -49.90236 34000 ft 428 kts 249°
2026-04-17 11:15 49.00332 -49.98693 34000 ft 428 kts 249°
2026-04-17 11:16 48.98266 -50.07119 34000 ft 428 kts 250°
2026-04-17 11:16 48.96230 -50.15630 34000 ft 428 kts 250°
2026-04-17 11:17 48.94195 -50.24136 33859 ft 428 kts 250°
2026-04-17 11:17 48.93171 -50.28390 33359 ft 429 kts 250°
2026-04-17 11:17 48.92133 -50.32687 32542 ft 436 kts 250°
2026-04-17 11:18 48.91061 -50.37109 31647 ft 460 kts 250°
2026-04-17 11:18 48.89916 -50.41815 30753 ft 484 kts 250°
2026-04-17 11:18 48.88736 -50.46657 29856 ft 494 kts 250°
2026-04-17 11:18 48.87535 -50.51572 28973 ft 497 kts 250°
2026-04-17 11:19 48.86326 -50.56507 28091 ft 499 kts 250°
2026-04-17 11:19 48.85115 -50.61442 27363 ft 498 kts 250°
2026-04-17 11:19 48.83909 -50.66345 26757 ft 493 kts 249°
2026-04-17 11:19 48.82712 -50.71200 26150 ft 489 kts 249°
2026-04-17 11:20 48.81524 -50.76010 25560 ft 485 kts 249°
2026-04-17 11:20 48.80343 -50.80777 24953 ft 481 kts 249°
2026-04-17 11:20 48.79172 -50.85498 24359 ft 476 kts 249°
2026-04-17 11:20 48.78007 -50.90185 23759 ft 472 kts 249°
2026-04-17 11:21 48.76851 -50.94825 23151 ft 468 kts 249°
2026-04-17 11:21 48.75704 -50.99418 22558 ft 464 kts 249°
2026-04-17 11:21 48.74568 -51.03959 21956 ft 460 kts 249°
2026-04-17 11:21 48.73436 -51.08476 21357 ft 456 kts 249°
2026-04-17 11:22 48.72330 -51.12879 20761 ft 451 kts 249°
2026-04-17 11:22 48.71218 -51.17296 20154 ft 448 kts 249°
2026-04-17 11:22 48.70113 -51.21678 19561 ft 444 kts 249°
2026-04-17 11:22 48.69017 -51.26016 18952 ft 439 kts 249°
2026-04-17 11:23 48.67929 -51.30315 18357 ft 436 kts 249°
2026-04-17 11:23 48.66849 -51.34572 17755 ft 432 kts 249°
2026-04-17 11:23 48.65777 -51.38794 17156 ft 428 kts 249°
2026-04-17 11:23 48.64713 -51.42973 16549 ft 424 kts 249°
2026-04-17 11:24 48.63657 -51.47115 15943 ft 420 kts 249°
2026-04-17 11:24 48.62608 -51.51220 15342 ft 417 kts 249°
2026-04-17 11:24 48.61566 -51.55291 14733 ft 413 kts 249°
2026-04-17 11:24 48.60535 -51.59312 14217 ft 407 kts 249°
2026-04-17 11:25 48.59524 -51.63247 14015 ft 394 kts 249°
2026-04-17 11:25 48.58539 -51.67077 13976 ft 391 kts 249°
2026-04-17 11:25 48.57550 -51.70912 13973 ft 393 kts 249°
2026-04-17 11:25 48.56558 -51.74756 13972 ft 394 kts 249°
2026-04-17 11:26 48.55560 -51.78615 13913 ft 394 kts 249°
2026-04-17 11:26 48.54566 -51.82454 13671 ft 393 kts 249°
2026-04-17 11:26 48.53573 -51.86283 13419 ft 392 kts 249°
2026-04-17 11:26 48.52593 -51.90054 13174 ft 390 kts 249°
2026-04-17 11:27 48.51590 -51.93905 12921 ft 389 kts 249°
2026-04-17 11:27 48.50613 -51.97641 12668 ft 387 kts 248°
2026-04-17 11:27 48.49448 -52.01293 12425 ft 386 kts 243°
2026-04-17 11:27 48.48187 -52.04857 12188 ft 385 kts 242°
2026-04-17 11:28 48.46907 -52.08386 11925 ft 383 kts 241°
2026-04-17 11:28 48.45621 -52.11903 11672 ft 382 kts 241°
2026-04-17 11:28 48.44336 -52.15401 11430 ft 381 kts 241°
2026-04-17 11:28 48.43058 -52.18874 11176 ft 379 kts 241°
2026-04-17 11:29 48.41780 -52.22338 10921 ft 378 kts 241°
2026-04-17 11:29 48.40504 -52.25791 10661 ft 376 kts 241°
2026-04-17 11:29 48.39235 -52.29220 10436 ft 375 kts 241°
2026-04-17 11:29 48.37965 -52.32648 10180 ft 374 kts 241°
2026-04-17 11:30 48.36703 -52.36050 9921 ft 372 kts 241°
2026-04-17 11:30 48.35458 -52.39402 9746 ft 360 kts 241°
2026-04-17 11:30 48.34256 -52.42632 9545 ft 347 kts 241°
2026-04-17 11:30 48.33098 -52.45740 9352 ft 335 kts 241°
2026-04-17 11:31 48.31982 -52.48733 9175 ft 323 kts 241°
2026-04-17 11:31 48.30904 -52.51623 9021 ft 311 kts 241°
2026-04-17 11:31 48.29865 -52.54402 8851 ft 300 kts 241°
2026-04-17 11:31 48.28859 -52.57091 8664 ft 291 kts 241°
2026-04-17 11:32 48.27879 -52.59709 8422 ft 284 kts 241°
2026-04-17 11:32 48.26919 -52.62270 8174 ft 280 kts 241°
2026-04-17 11:32 48.25966 -52.64812 7931 ft 279 kts 241°
2026-04-17 11:32 48.25018 -52.67336 7675 ft 278 kts 240°
2026-04-17 11:33 48.24066 -52.69870 7419 ft 277 kts 240°
2026-04-17 11:33 48.23120 -52.72384 7178 ft 276 kts 240°
2026-04-17 11:33 48.22176 -52.74890 6934 ft 275 kts 240°
2026-04-17 11:33 48.21237 -52.77382 6679 ft 274 kts 240°
2026-04-17 11:34 48.20311 -52.79836 6429 ft 273 kts 240°
2026-04-17 11:34 48.19429 -52.82171 6197 ft 272 kts 240°
2026-04-17 11:34 48.18497 -52.84638 6003 ft 271 kts 240°
2026-04-17 11:34 48.17567 -52.87094 5976 ft 271 kts 240°
2026-04-17 11:35 48.16638 -52.89548 5974 ft 271 kts 240°
2026-04-17 11:35 48.15708 -52.92003 5971 ft 271 kts 240°
2026-04-17 11:35 48.14777 -52.94457 5971 ft 271 kts 240°
2026-04-17 11:35 48.13851 -52.96895 5754 ft 268 kts 240°
2026-04-17 11:36 48.12928 -52.99322 5369 ft 268 kts 240°
2026-04-17 11:36 48.12004 -53.01751 5006 ft 267 kts 240°
2026-04-17 11:36 48.11086 -53.04161 4650 ft 266 kts 240°
2026-04-17 11:36 48.10076 -53.06466 4315 ft 264 kts 230°
2026-04-17 11:37 48.08883 -53.08074 4162 ft 256 kts 213°
2026-04-17 11:37 48.07271 -53.09026 3984 ft 247 kts 189°
2026-04-17 11:37 48.05599 -53.08866 3825 ft 239 kts 165°
2026-04-17 11:37 48.04063 -53.08055 3698 ft 230 kts 159°
2026-04-17 11:38 48.02604 -53.07186 3522 ft 223 kts 158°
2026-04-17 11:38 48.01168 -53.06326 3309 ft 221 kts 159°
2026-04-17 11:38 47.99764 -53.05511 3386 ft 214 kts 159°
2026-04-17 11:38 47.98346 -53.04699 3046 ft 223 kts 159°
2026-04-17 11:39 47.96922 -53.03864 2970 ft 216 kts 159°
2026-04-17 11:39 47.95517 -53.03044 2970 ft 217 kts 159°
2026-04-17 11:39 47.94110 -53.02227 2971 ft 218 kts 159°
2026-04-17 11:39 47.92695 -53.01411 2972 ft 218 kts 159°
2026-04-17 11:40 47.91283 -53.00599 2973 ft 218 kts 159°
2026-04-17 11:40 47.89870 -52.99788 2972 ft 217 kts 159°
2026-04-17 11:40 47.88458 -52.98978 2973 ft 217 kts 159°
2026-04-17 11:40 47.87046 -52.98168 2972 ft 217 kts 159°
2026-04-17 11:41 47.85634 -52.97360 2972 ft 217 kts 159°
2026-04-17 11:41 47.84221 -52.96551 2972 ft 217 kts 159°
2026-04-17 11:41 47.82811 -52.95744 2972 ft 217 kts 159°
2026-04-17 11:41 47.81417 -52.94948 2973 ft 217 kts 159°
2026-04-17 11:42 47.80011 -52.94144 2966 ft 212 kts 159°
2026-04-17 11:42 47.78698 -52.93393 3022 ft 195 kts 159°
2026-04-17 11:42 47.77424 -52.92666 2989 ft 194 kts 159°
2026-04-17 11:42 47.76158 -52.91944 2975 ft 195 kts 159°
2026-04-17 11:43 47.74951 -52.91049 2976 ft 191 kts 147°
2026-04-17 11:43 47.73958 -52.89895 2981 ft 178 kts 140°
2026-04-17 11:43 47.73044 -52.88685 2981 ft 173 kts 137°
2026-04-17 11:43 47.72161 -52.87519 2924 ft 168 kts 139°
2026-04-17 11:44 47.71279 -52.86386 2728 ft 167 kts 139°
2026-04-17 11:44 47.70408 -52.85257 2485 ft 165 kts 139°
2026-04-17 11:44 47.69544 -52.84141 2262 ft 165 kts 139°
2026-04-17 11:44 47.68680 -52.83025 2047 ft 164 kts 139°
2026-04-17 11:45 47.67818 -52.81916 1826 ft 164 kts 140°
2026-04-17 11:45 47.66966 -52.80819 1617 ft 160 kts 139°
2026-04-17 11:45 47.66194 -52.79825 1517 ft 152 kts 139°
2026-04-17 11:45 47.65332 -52.78714 1343 ft 180 kts 139°
2026-04-17 11:46 47.64345 -52.77449 1645 ft 196 kts 140°
2026-04-17 11:46 47.63254 -52.76044 1946 ft 217 kts 140°
2026-04-17 11:46 47.62074 -52.74523 2423 ft 232 kts 139°
2026-04-17 11:46 47.60825 -52.72917 2911 ft 241 kts 139°
2026-04-17 11:47 47.59558 -52.71291 3107 ft 242 kts 139°
2026-04-17 11:47 47.58285 -52.69658 3125 ft 242 kts 139°
2026-04-17 11:47 47.56996 -52.68063 3126 ft 242 kts 141°
2026-04-17 11:47 47.55625 -52.66620 3126 ft 242 kts 152°
2026-04-17 11:48 47.54035 -52.65856 3137 ft 244 kts 171°
2026-04-17 11:48 47.52281 -52.65708 3129 ft 258 kts 185°
2026-04-17 11:48 47.50502 -52.66175 3121 ft 261 kts 197°
2026-04-17 11:48 47.48900 -52.67411 3139 ft 262 kts 220°
2026-04-17 11:49 47.47860 -52.69557 3126 ft 259 kts 250°
2026-04-17 11:49 47.47716 -52.72173 3128 ft 259 kts 281°
2026-04-17 11:49 47.48501 -52.74544 3127 ft 260 kts 311°
2026-04-17 11:49 47.49959 -52.76027 3140 ft 261 kts 335°
2026-04-17 11:50 47.51643 -52.77023 3129 ft 261 kts 338°
2026-04-17 11:50 47.53341 -52.77979 3130 ft 262 kts 338°
2026-04-17 11:50 47.55028 -52.78951 3138 ft 261 kts 338°
2026-04-17 11:50 47.56719 -52.79946 3127 ft 261 kts 338°
2026-04-17 11:51 47.58408 -52.80962 3125 ft 261 kts 337°
2026-04-17 11:51 47.60093 -52.81988 3128 ft 261 kts 337°
2026-04-17 11:51 47.61771 -52.83028 3128 ft 262 kts 336°
2026-04-17 11:51 47.63445 -52.84069 3120 ft 261 kts 336°
2026-04-17 11:52 47.65121 -52.85119 3125 ft 261 kts 336°
2026-04-17 11:52 47.66862 -52.85830 3121 ft 262 kts 359°
2026-04-17 11:52 47.68590 -52.85115 3129 ft 261 kts 32°
2026-04-17 11:52 47.69766 -52.83102 3122 ft 261 kts 66°
2026-04-17 11:53 47.69993 -52.80476 3126 ft 256 kts 101°
2026-04-17 11:53 47.69223 -52.78249 3135 ft 236 kts 137°
2026-04-17 11:53 47.67833 -52.77233 3145 ft 217 kts 171°
2026-04-17 11:53 47.66400 -52.76994 3154 ft 198 kts 179°
2026-04-17 11:54 47.65086 -52.77274 3152 ft 188 kts 200°
2026-04-17 11:54 47.64002 -52.78336 3141 ft 189 kts 229°
2026-04-17 11:54 47.63436 -52.80037 3021 ft 182 kts 259°
2026-04-17 11:54 47.63526 -52.81837 2847 ft 174 kts 287°
2026-04-17 11:55 47.64221 -52.83332 2381 ft 186 kts 322°
2026-04-17 11:55 47.65378 -52.84305 2148 ft 195 kts 333°
2026-04-17 11:55 47.66617 -52.85163 2127 ft 197 kts 334°
2026-04-17 11:55 47.67840 -52.86008 2125 ft 196 kts 334°
2026-04-17 11:56 47.69085 -52.86890 2128 ft 195 kts 334°
2026-04-17 11:56 47.70304 -52.87774 2130 ft 195 kts 333°
2026-04-17 11:56 47.71521 -52.88668 2127 ft 195 kts 333°
2026-04-17 11:56 47.72736 -52.89568 2128 ft 195 kts 333°
2026-04-17 11:57 47.73952 -52.90472 2130 ft 195 kts 333°
2026-04-17 11:57 47.75150 -52.91415 2122 ft 195 kts 327°
2026-04-17 11:57 47.75992 -52.92948 2124 ft 196 kts 288°
2026-04-17 11:57 47.75886 -52.94911 2126 ft 195 kts 243°
2026-04-17 11:58 47.74878 -52.96190 2128 ft 196 kts 199°
2026-04-17 11:58 47.73545 -52.96048 2128 ft 198 kts 154°
2026-04-17 11:58 47.72600 -52.94630 2140 ft 198 kts 123°
2026-04-17 11:58 47.71951 -52.92887 2227 ft 186 kts 123°
2026-04-17 11:59 47.71360 -52.91219 2037 ft 178 kts 125°
2026-04-17 11:59 47.70777 -52.89695 1994 ft 162 kts 127°
2026-04-17 11:59 47.70223 -52.88321 2004 ft 148 kts 129°
2026-04-17 11:59 47.69686 -52.87049 2008 ft 144 kts 130°
2026-04-17 12:00 47.69138 -52.85789 1999 ft 146 kts 131°
2026-04-17 12:00 47.68582 -52.84525 2000 ft 147 kts 131°
2026-04-17 12:00 47.68022 -52.83254 1992 ft 147 kts 131°
2026-04-17 12:00 47.67468 -52.81992 1995 ft 146 kts 131°
2026-04-17 12:01 47.66881 -52.80770 1993 ft 144 kts 138°
2026-04-17 12:01 47.66132 -52.79864 2008 ft 143 kts 150°
2026-04-17 12:01 47.65389 -52.78959 1989 ft 133 kts 144°
2026-04-17 12:01 47.64696 -52.77991 1665 ft 144 kts 143°
2026-04-17 12:02 47.63922 -52.76942 1139 ft 155 kts 141°
2026-04-17 12:02 47.63364 -52.76209 814 ft 163 kts 139°
2026-04-17 12:02 47.62237 -52.74724 458 ft 158 kts 138°
2026-04-17 12:02 47.61484 -52.73775 454 ft 112 kts 139°
2026-04-17 12:03 47.61345 -52.73596 449 ft 88 kts 139°
2026-04-17 12:03 47.61177 -52.73411 432 ft 28 kts 169°
2026-04-17 12:03 47.61157 -52.73414 437 ft 0 kts 200°
2026-04-17 12:03 47.61130 -52.73494 448 ft 16 kts 272°
2026-04-17 12:04 47.61209 -52.73727 457 ft 36 kts 298°
2026-04-17 12:04 47.61373 -52.74015 456 ft 32 kts 307°
2026-04-17 12:04 47.61373 -52.74175 456 ft 0 kts 252°
2026-04-17 12:04 47.61368 -52.74195 456 ft 0 kts 249°